Powrót do katalogu

STARLINK-34990

AktywnyŁącznośćSSO
NORAD 65244·PAYLOAD·🇺🇸 United States

Wystrzelony Aug 18, 2025 z Vandenberg Space Force Base

Loading…

Następne Przeloty (najbliższe 24 godziny)

TLE

ŚwieżeSource: CelesTrak SupGP

Epoka: Sep 15, 2026, 02:54 UTC

1 65244C 25179K   26258.12131944 -.00012176  00000+0 -37793-3 0  2581
2 65244  97.2830 297.5424 0000908  97.6739 120.7882 15.33448864    18

Śledź STARLINK-34990 w czasie rzeczywistym z AllMySat

Download on the App Store